Year,Month,Day,Hour,Minute,Value (Times are PST for barometer in hPa)
2015,12,10,00,00,995.32
2015,12,10,00,01,995.26
2015,12,10,00,02,995.22
2015,12,10,00,03,995.12
2015,12,10,00,04,995.06
2015,12,10,00,05,994.92
2015,12,10,00,06,994.89
2015,12,10,00,07,994.79
2015,12,10,00,08,994.72
2015,12,10,00,09,994.72
2015,12,10,00,10,994.62
2015,12,10,00,11,994.45
2015,12,10,00,12,994.35
2015,12,10,00,13,994.35
2015,12,10,00,14,994.21
2015,12,10,00,15,994.18
2015,12,10,00,16,994.14
2015,12,10,00,17,994.11
2015,12,10,00,18,994.07
2015,12,10,00,19,993.97
2015,12,10,00,20,993.91
2015,12,10,00,21,993.91
2015,12,10,00,22,993.87
2015,12,10,00,23,993.80
2015,12,10,00,24,993.79
2015,12,10,00,25,993.70
2015,12,10,00,26,993.60
2015,12,10,00,27,993.53
2015,12,10,00,28,993.43
2015,12,10,00,29,993.40
2015,12,10,00,30,993.36
2015,12,10,00,31,993.33
2015,12,10,00,32,993.25
2015,12,10,00,33,993.09
2015,12,10,00,34,993.06
2015,12,10,00,35,993.13
2015,12,10,00,36,993.13
2015,12,10,00,37,993.19
2015,12,10,00,38,993.16
2015,12,10,00,39,993.05
2015,12,10,00,40,992.96
2015,12,10,00,41,992.89
2015,12,10,00,42,992.82
2015,12,10,00,43,992.86
2015,12,10,00,44,992.82
2015,12,10,00,45,992.82
2015,12,10,00,46,992.86
2015,12,10,00,47,992.72
2015,12,10,00,48,992.65
2015,12,10,00,49,992.65
2015,12,10,00,50,992.62
2015,12,10,00,51,992.62
2015,12,10,00,52,992.55
2015,12,10,00,53,992.47
2015,12,10,00,54,992.38
2015,12,10,00,55,992.35
2015,12,10,00,56,992.25
2015,12,10,00,57,992.28
2015,12,10,00,58,992.21
2015,12,10,00,59,992.18
2015,12,10,01,00,992.14
2015,12,10,01,01,992.04
2015,12,10,01,02,991.86
2015,12,10,01,03,991.73
2015,12,10,01,04,991.60
2015,12,10,01,05,991.42
2015,12,10,01,06,991.33
2015,12,10,01,07,991.26
2015,12,10,01,08,991.23
2015,12,10,01,09,991.22
2015,12,10,01,10,991.13
2015,12,10,01,11,991.06
2015,12,10,01,12,990.96
2015,12,10,01,13,990.93
2015,12,10,01,14,990.89
2015,12,10,01,15,990.85
2015,12,10,01,16,990.72
2015,12,10,01,17,990.69
2015,12,10,01,18,990.72
2015,12,10,01,19,990.79
2015,12,10,01,20,990.79
2015,12,10,01,21,990.68
2015,12,10,01,22,990.55
2015,12,10,01,23,990.55
2015,12,10,01,24,990.65
2015,12,10,01,25,990.62
2015,12,10,01,26,990.62
2015,12,10,01,27,990.38
2015,12,10,01,28,990.28
2015,12,10,01,29,990.28
2015,12,10,01,30,990.28
2015,12,10,01,31,990.21
2015,12,10,01,32,990.04
2015,12,10,01,33,989.88
2015,12,10,01,34,989.77
2015,12,10,01,35,989.57
2015,12,10,01,36,989.53
2015,12,10,01,37,989.27
2015,12,10,01,38,989.22
2015,12,10,01,39,989.10
2015,12,10,01,40,988.86
2015,12,10,01,41,988.86
2015,12,10,01,42,988.86
2015,12,10,01,43,988.78
2015,12,10,01,44,988.62
2015,12,10,01,45,988.45
2015,12,10,01,46,988.45
2015,12,10,01,47,988.42
2015,12,10,01,48,988.42
2015,12,10,01,49,988.35
2015,12,10,01,50,988.28
2015,12,10,01,51,988.11
2015,12,10,01,52,988.11
2015,12,10,01,53,988.22
2015,12,10,01,54,988.08
2015,12,10,01,55,988.08
2015,12,10,01,56,988.08
2015,12,10,01,57,988.11
2015,12,10,01,58,988.08
2015,12,10,01,59,988.08
2015,12,10,02,00,988.05
2015,12,10,02,01,987.98
2015,12,10,02,02,987.98
2015,12,10,02,03,987.98
2015,12,10,02,04,988.01
2015,12,10,02,05,987.91
2015,12,10,02,06,988.01
2015,12,10,02,07,987.91
2015,12,10,02,08,987.91
2015,12,10,02,09,987.84
2015,12,10,02,10,987.74
2015,12,10,02,11,987.71
2015,12,10,02,12,987.74
2015,12,10,02,13,987.81
2015,12,10,02,14,987.81
2015,12,10,02,15,987.81
2015,12,10,02,16,987.74
2015,12,10,02,17,987.71
2015,12,10,02,18,987.64
2015,12,10,02,19,987.67
2015,12,10,02,20,987.67
2015,12,10,02,21,987.67
2015,12,10,02,22,987.71
2015,12,10,02,23,987.61
2015,12,10,02,24,987.61
2015,12,10,02,25,987.57
2015,12,10,02,26,987.47
2015,12,10,02,27,987.40
2015,12,10,02,28,987.51
2015,12,10,02,29,987.51
2015,12,10,02,30,987.51
2015,12,10,02,31,987.27
2015,12,10,02,32,987.20
2015,12,10,02,33,987.20
2015,12,10,02,34,987.17
2015,12,10,02,35,987.06
2015,12,10,02,36,987.00
2015,12,10,02,37,986.93
2015,12,10,02,38,986.96
2015,12,10,02,39,986.90
2015,12,10,02,40,986.86
2015,12,10,02,41,986.76
2015,12,10,02,42,986.76
2015,12,10,02,43,986.69
2015,12,10,02,44,986.69
2015,12,10,02,45,986.69
2015,12,10,02,46,986.69
2015,12,10,02,47,986.59
2015,12,10,02,48,986.51
2015,12,10,02,49,986.39
2015,12,10,02,50,986.25
2015,12,10,02,51,986.34
2015,12,10,02,52,986.22
2015,12,10,02,53,986.18
2015,12,10,02,54,986.05
2015,12,10,02,55,986.12
2015,12,10,02,56,986.12
2015,12,10,02,57,986.05
2015,12,10,02,58,986.02
2015,12,10,02,59,985.98
2015,12,10,03,00,985.98
2015,12,10,03,01,985.95
2015,12,10,03,02,985.97
2015,12,10,03,03,985.88
2015,12,10,03,06,985.96
2015,12,10,03,07,985.90
2015,12,10,03,08,985.95
2015,12,10,03,09,985.83
2015,12,10,03,10,985.85
2015,12,10,03,11,985.75
2015,12,10,03,12,985.82
2015,12,10,03,13,985.85
2015,12,10,03,14,985.83
2015,12,10,03,15,985.73
2015,12,10,03,16,985.68
2015,12,10,03,17,985.58
2015,12,10,03,18,985.59
2015,12,10,03,19,985.55
2015,12,10,03,20,985.62
2015,12,10,03,21,985.66
2015,12,10,03,22,985.56
2015,12,10,03,23,985.53
2015,12,10,03,24,985.51
2015,12,10,03,25,985.65
2015,12,10,03,26,985.56
2015,12,10,03,27,985.52
2015,12,10,03,28,985.56
2015,12,10,03,29,985.52
2015,12,10,03,30,985.58
2015,12,10,03,31,985.61
2015,12,10,03,32,985.60
2015,12,10,03,33,985.56
2015,12,10,03,34,985.53
2015,12,10,03,35,985.50
2015,12,10,03,36,985.46
2015,12,10,03,37,985.45
2015,12,10,03,38,985.44
2015,12,10,03,39,985.27
2015,12,10,03,40,985.29
2015,12,10,03,41,985.39
2015,12,10,03,42,985.45
2015,12,10,03,43,985.35
2015,12,10,03,44,985.27
2015,12,10,03,45,985.15
2015,12,10,03,46,985.10
2015,12,10,03,47,985.19
2015,12,10,03,48,985.18
2015,12,10,03,49,985.25
2015,12,10,03,50,985.28
2015,12,10,03,51,985.19
2015,12,10,03,52,985.16
2015,12,10,03,53,985.12
2015,12,10,03,54,985.20
2015,12,10,03,55,985.22
2015,12,10,03,56,985.24
2015,12,10,03,57,985.09
2015,12,10,03,58,985.05
2015,12,10,03,59,984.98
2015,12,10,04,00,985.02
2015,12,10,04,01,984.97
2015,12,10,04,02,984.95
2015,12,10,04,03,984.85
2015,12,10,04,04,984.80
2015,12,10,04,05,984.83
2015,12,10,04,06,984.92
2015,12,10,04,07,984.91
2015,12,10,04,08,984.89
2015,12,10,04,09,984.74
2015,12,10,04,10,984.74
2015,12,10,04,11,984.63
2015,12,10,04,12,984.62
2015,12,10,04,13,984.59
2015,12,10,04,14,984.58
2015,12,10,04,15,984.55
2015,12,10,04,16,984.65
2015,12,10,04,17,984.64
2015,12,10,04,18,984.67
2015,12,10,04,19,984.68
2015,12,10,04,20,984.65
2015,12,10,04,21,984.59
2015,12,10,04,22,984.55
2015,12,10,04,23,984.54
2015,12,10,04,24,984.59
2015,12,10,04,25,984.60
2015,12,10,04,26,984.62
2015,12,10,04,27,984.59
2015,12,10,04,28,984.57
2015,12,10,04,29,984.49
2015,12,10,04,30,984.48
2015,12,10,04,31,984.41
2015,12,10,04,32,984.36
2015,12,10,04,33,984.37
2015,12,10,04,34,984.39
2015,12,10,04,35,984.43
2015,12,10,04,36,984.49
2015,12,10,04,37,984.49
2015,12,10,04,38,984.48
2015,12,10,04,39,984.44
2015,12,10,04,40,984.53
2015,12,10,04,41,984.53
2015,12,10,04,42,984.52
2015,12,10,04,43,984.48
2015,12,10,04,44,984.43
2015,12,10,04,45,984.25
2015,12,10,04,46,984.03
2015,12,10,04,47,983.85
2015,12,10,04,48,983.74
2015,12,10,04,49,983.69
2015,12,10,04,50,983.72
2015,12,10,04,51,983.78
2015,12,10,04,52,983.88
2015,12,10,04,53,983.89
2015,12,10,04,54,983.96
2015,12,10,04,55,984.00
2015,12,10,04,56,983.94
2015,12,10,04,57,983.89
2015,12,10,04,58,983.90
2015,12,10,04,59,983.83
2015,12,10,05,00,983.75
2015,12,10,05,01,983.73
2015,12,10,05,02,983.62
2015,12,10,05,03,983.55
2015,12,10,05,04,983.61
2015,12,10,05,05,983.61
2015,12,10,05,06,983.60
2015,12,10,05,07,983.52
2015,12,10,05,08,983.45
2015,12,10,05,09,983.52
2015,12,10,05,10,983.51
2015,12,10,05,11,983.35
2015,12,10,05,12,983.28
2015,12,10,05,13,983.27
2015,12,10,05,14,983.11
2015,12,10,05,15,983.18
2015,12,10,05,16,983.21
2015,12,10,05,17,983.23
2015,12,10,05,18,983.21
2015,12,10,05,19,983.27
2015,12,10,05,20,983.28
2015,12,10,05,21,983.33
2015,12,10,05,22,983.27
2015,12,10,05,23,983.26
2015,12,10,05,24,983.19
2015,12,10,05,25,983.17
2015,12,10,05,26,983.17
2015,12,10,05,27,983.16
2015,12,10,05,28,983.11
2015,12,10,05,29,983.18
2015,12,10,05,30,983.25
2015,12,10,05,31,983.26
2015,12,10,05,32,983.23
2015,12,10,05,33,983.20
2015,12,10,05,34,983.21
2015,12,10,05,35,983.23
2015,12,10,05,36,983.21
2015,12,10,05,37,983.23
2015,12,10,05,38,983.20
2015,12,10,05,39,983.20
2015,12,10,05,40,983.20
2015,12,10,05,41,983.20
2015,12,10,05,42,983.21
2015,12,10,05,43,983.25
2015,12,10,05,44,983.26
2015,12,10,05,45,983.23
2015,12,10,05,46,983.20
2015,12,10,05,47,983.20
2015,12,10,05,48,983.18
2015,12,10,05,49,983.19
2015,12,10,05,50,983.17
2015,12,10,05,51,983.21
2015,12,10,05,52,983.23
2015,12,10,05,53,983.16
2015,12,10,05,54,983.13
2015,12,10,05,55,983.06
2015,12,10,05,56,982.96
2015,12,10,05,57,982.89
2015,12,10,05,58,982.86
2015,12,10,05,59,982.83
2015,12,10,06,00,982.82
2015,12,10,06,01,982.73
2015,12,10,06,02,982.60
2015,12,10,06,03,982.48
2015,12,10,06,04,982.43
2015,12,10,06,05,982.43
2015,12,10,06,06,982.43
2015,12,10,06,07,982.42
2015,12,10,06,08,982.33
2015,12,10,06,09,982.22
2015,12,10,06,10,982.17
2015,12,10,06,11,982.07
2015,12,10,06,12,981.98
2015,12,10,06,13,981.92
2015,12,10,06,14,981.92
2015,12,10,06,15,981.90
2015,12,10,06,16,981.81
2015,12,10,06,17,981.78
2015,12,10,06,18,981.77
2015,12,10,06,19,981.76
2015,12,10,06,20,981.79
2015,12,10,06,21,981.81
2015,12,10,06,22,981.73
2015,12,10,06,23,981.66
2015,12,10,06,24,981.69
2015,12,10,06,25,981.71
2015,12,10,06,26,981.71
2015,12,10,06,27,981.71
2015,12,10,06,28,981.72
2015,12,10,06,29,981.77
2015,12,10,06,30,981.70
2015,12,10,06,31,981.69
2015,12,10,06,32,981.70
2015,12,10,06,33,981.65
2015,12,10,06,34,981.65
2015,12,10,06,35,981.66
2015,12,10,06,36,981.67
2015,12,10,06,37,981.66
2015,12,10,06,38,981.72
2015,12,10,06,39,981.78
2015,12,10,06,40,981.73
2015,12,10,06,41,981.64
2015,12,10,06,42,981.57
2015,12,10,06,43,981.54
2015,12,10,06,44,981.50
2015,12,10,06,45,981.58
2015,12,10,06,46,981.56
2015,12,10,06,47,981.47
2015,12,10,06,48,981.41
2015,12,10,06,49,981.39
2015,12,10,06,50,981.41
2015,12,10,06,51,981.44
2015,12,10,06,52,981.43
2015,12,10,06,53,981.41
2015,12,10,06,54,981.39
2015,12,10,06,55,981.41
2015,12,10,06,56,981.41
2015,12,10,06,57,981.43
2015,12,10,06,58,981.41
2015,12,10,06,59,981.40
2015,12,10,07,00,981.30
2015,12,10,07,01,981.27
2015,12,10,07,02,981.28
2015,12,10,07,03,981.32
2015,12,10,07,04,981.36
2015,12,10,07,05,981.20
2015,12,10,07,06,981.13
2015,12,10,07,07,981.09
2015,12,10,07,08,981.07
2015,12,10,07,09,981.06
2015,12,10,07,10,981.03
2015,12,10,07,11,980.93
2015,12,10,07,12,980.90
2015,12,10,07,13,980.87
2015,12,10,07,14,980.86
2015,12,10,07,15,980.80
2015,12,10,07,16,980.78
2015,12,10,07,17,980.71
2015,12,10,07,18,980.72
2015,12,10,07,19,980.69
2015,12,10,07,20,980.65
2015,12,10,07,21,980.63
2015,12,10,07,22,980.61
2015,12,10,07,23,980.52
2015,12,10,07,24,980.42
2015,12,10,07,25,980.40
2015,12,10,07,26,980.41
2015,12,10,07,27,980.34
2015,12,10,07,28,980.37
2015,12,10,07,29,980.38
2015,12,10,07,30,980.36
2015,12,10,07,31,980.38
2015,12,10,07,32,980.35
2015,12,10,07,33,980.32
2015,12,10,07,34,980.24
2015,12,10,07,35,980.15
2015,12,10,07,36,980.08
2015,12,10,07,37,980.05
2015,12,10,07,38,980.02
2015,12,10,07,39,979.99
2015,12,10,07,40,979.98
2015,12,10,07,41,979.93
2015,12,10,07,42,979.94
2015,12,10,07,43,979.92
2015,12,10,07,44,979.91
2015,12,10,07,45,979.88
2015,12,10,07,46,979.82
2015,12,10,07,47,979.82
2015,12,10,07,48,979.81
2015,12,10,07,49,979.77
2015,12,10,07,50,979.71
2015,12,10,07,51,979.65
2015,12,10,07,52,979.64
2015,12,10,07,53,979.59
2015,12,10,07,54,979.51
2015,12,10,07,55,979.53
2015,12,10,07,56,979.60
2015,12,10,07,57,979.53
2015,12,10,07,58,979.44
2015,12,10,07,59,979.41
2015,12,10,08,00,979.39
2015,12,10,08,01,979.40
2015,12,10,08,02,979.33
2015,12,10,08,03,979.27
2015,12,10,08,04,979.21
2015,12,10,08,05,979.18
2015,12,10,08,06,979.05
2015,12,10,08,07,979.09
2015,12,10,08,08,978.98
2015,12,10,08,09,978.90
2015,12,10,08,10,979.02
2015,12,10,08,11,978.91
2015,12,10,08,12,978.81
2015,12,10,08,13,978.87
2015,12,10,08,14,978.88
2015,12,10,08,15,978.91
2015,12,10,08,16,978.94
2015,12,10,08,17,978.95
2015,12,10,08,18,978.96
2015,12,10,08,19,978.90
2015,12,10,08,20,978.89
2015,12,10,08,21,978.87
2015,12,10,08,22,978.87
2015,12,10,08,23,978.85
2015,12,10,08,24,978.77
2015,12,10,08,25,978.76
2015,12,10,08,26,978.72
2015,12,10,08,27,978.66
2015,12,10,08,28,978.61
2015,12,10,08,29,978.64
2015,12,10,08,30,978.67
2015,12,10,08,31,978.68
2015,12,10,08,32,978.70
2015,12,10,08,33,978.73
2015,12,10,08,34,978.74
2015,12,10,08,35,978.79
2015,12,10,08,36,978.76
2015,12,10,08,37,978.69
2015,12,10,08,38,978.62
2015,12,10,08,39,978.57
2015,12,10,08,40,978.60
2015,12,10,08,41,978.60
2015,12,10,08,42,978.59
2015,12,10,08,43,978.49
2015,12,10,08,44,978.46
2015,12,10,08,45,978.46
2015,12,10,08,46,978.45
2015,12,10,08,47,978.43
2015,12,10,08,48,978.43
2015,12,10,08,49,978.46
2015,12,10,08,50,978.47
2015,12,10,08,51,978.49
2015,12,10,08,52,978.46
2015,12,10,08,53,978.45
2015,12,10,08,54,978.41
2015,12,10,08,55,978.45
2015,12,10,08,56,978.42
2015,12,10,08,57,978.51
2015,12,10,08,58,978.58
2015,12,10,08,59,978.64
2015,12,10,09,00,978.69
2015,12,10,09,01,978.64
2015,12,10,09,02,978.69
2015,12,10,09,03,978.76
2015,12,10,09,04,978.74
2015,12,10,09,05,978.78
2015,12,10,09,06,978.84
2015,12,10,09,07,978.84
2015,12,10,09,08,978.86
2015,12,10,09,09,978.83
2015,12,10,09,10,978.81
2015,12,10,09,11,978.87
2015,12,10,09,12,978.88
2015,12,10,09,13,978.93
2015,12,10,09,14,978.88
2015,12,10,09,15,978.94
2015,12,10,09,16,978.94
2015,12,10,09,17,978.98
2015,12,10,09,18,979.02
2015,12,10,09,19,979.07
2015,12,10,09,20,979.06
2015,12,10,09,21,979.14
2015,12,10,09,22,979.12
2015,12,10,09,23,979.14
2015,12,10,09,24,979.10
2015,12,10,09,25,979.08
2015,12,10,09,26,979.09
2015,12,10,09,27,979.01
2015,12,10,09,28,979.02
2015,12,10,09,29,979.07
2015,12,10,09,30,979.07
2015,12,10,09,31,979.04
2015,12,10,09,32,979.05
2015,12,10,09,33,979.07
2015,12,10,09,34,979.03
2015,12,10,09,35,978.96
2015,12,10,09,36,978.91
2015,12,10,09,37,978.98
2015,12,10,09,38,979.01
2015,12,10,09,39,979.02
2015,12,10,09,40,979.06
2015,12,10,09,41,979.00
2015,12,10,09,42,978.98
2015,12,10,09,43,979.00
2015,12,10,09,44,978.98
2015,12,10,09,45,979.03
2015,12,10,09,46,978.93
2015,12,10,09,47,978.90
2015,12,10,09,48,978.89
2015,12,10,09,49,978.80
2015,12,10,09,50,978.77
2015,12,10,09,51,978.76
2015,12,10,09,52,978.69
2015,12,10,09,53,978.63
2015,12,10,09,54,978.63
2015,12,10,09,55,978.58
2015,12,10,09,56,978.50
2015,12,10,09,57,978.50
2015,12,10,09,58,978.50
2015,12,10,09,59,978.49
2015,12,10,10,00,978.46
2015,12,10,10,01,978.48
2015,12,10,10,02,978.58
2015,12,10,10,03,978.59
2015,12,10,10,04,978.54
2015,12,10,10,05,978.58
2015,12,10,10,06,978.64
2015,12,10,10,07,978.69
2015,12,10,10,08,978.62
2015,12,10,10,09,978.60
2015,12,10,10,10,978.58
2015,12,10,10,11,978.64
2015,12,10,10,12,978.70
2015,12,10,10,13,978.67
2015,12,10,10,14,978.66
2015,12,10,10,15,978.60
2015,12,10,10,16,978.59
2015,12,10,10,17,978.58
2015,12,10,10,18,978.62
2015,12,10,10,19,978.57
2015,12,10,10,20,978.58
2015,12,10,10,21,978.60
2015,12,10,10,22,978.63
2015,12,10,10,23,978.61
2015,12,10,10,24,978.52
2015,12,10,10,25,978.46
2015,12,10,10,26,978.47
2015,12,10,10,27,978.50
2015,12,10,10,28,978.50
2015,12,10,10,29,978.50
2015,12,10,10,30,978.51
2015,12,10,10,31,978.57
2015,12,10,10,32,978.59
2015,12,10,10,33,978.53
2015,12,10,10,34,978.51
2015,12,10,10,35,978.57
2015,12,10,10,36,978.61
2015,12,10,10,37,978.67
2015,12,10,10,38,978.66
2015,12,10,10,39,978.63
2015,12,10,10,40,978.60
2015,12,10,10,41,978.57
2015,12,10,10,42,978.53
2015,12,10,10,43,978.50
2015,12,10,10,44,978.51
2015,12,10,10,45,978.56
2015,12,10,10,46,978.53
2015,12,10,10,47,978.51
2015,12,10,10,48,978.63
2015,12,10,10,49,978.77
2015,12,10,10,50,978.80
2015,12,10,10,51,978.76
2015,12,10,10,52,978.72
2015,12,10,10,53,978.68
2015,12,10,10,54,978.77
2015,12,10,10,55,978.81
2015,12,10,10,56,978.84
2015,12,10,10,57,978.87
2015,12,10,10,58,978.82
2015,12,10,10,59,978.73
2015,12,10,11,00,978.72
2015,12,10,11,01,978.67
2015,12,10,11,02,978.66
2015,12,10,11,03,978.63
2015,12,10,11,04,978.64
2015,12,10,11,05,978.68
2015,12,10,11,06,978.75
2015,12,10,11,07,978.83
2015,12,10,11,08,978.76
2015,12,10,11,09,978.73
2015,12,10,11,10,978.74
2015,12,10,11,11,978.81
2015,12,10,11,12,978.85
2015,12,10,11,13,978.90
2015,12,10,11,14,978.91
2015,12,10,11,15,978.95
2015,12,10,11,16,979.02
2015,12,10,11,17,979.07
2015,12,10,11,18,979.04
2015,12,10,11,19,979.08
2015,12,10,11,20,979.14
2015,12,10,11,21,979.14
2015,12,10,11,22,979.14
2015,12,10,11,23,979.10
2015,12,10,11,24,979.07
2015,12,10,11,25,979.04
2015,12,10,11,26,979.03
2015,12,10,11,27,979.11
2015,12,10,11,28,979.12
2015,12,10,11,29,979.17
2015,12,10,11,30,979.16
2015,12,10,11,31,979.12
2015,12,10,11,32,979.20
2015,12,10,11,33,979.13
2015,12,10,11,34,979.05
2015,12,10,11,35,978.94
2015,12,10,11,36,978.97
2015,12,10,11,37,978.98
2015,12,10,11,38,979.02
2015,12,10,11,39,979.11
2015,12,10,11,40,979.15
2015,12,10,11,41,979.23
2015,12,10,11,42,979.18
2015,12,10,11,43,979.20
2015,12,10,11,44,979.15
2015,12,10,11,45,979.21
2015,12,10,11,46,979.17
2015,12,10,11,47,979.17
2015,12,10,11,48,979.16
2015,12,10,11,49,979.13
2015,12,10,11,50,979.23
2015,12,10,11,51,979.17
2015,12,10,11,52,979.17
2015,12,10,11,53,979.17
2015,12,10,11,54,979.18
2015,12,10,11,55,979.21
2015,12,10,11,56,979.21
2015,12,10,11,57,979.24
2015,12,10,11,58,979.24
2015,12,10,11,59,979.20
2015,12,10,12,00,979.14
2015,12,10,12,01,979.10
2015,12,10,12,02,979.04
2015,12,10,12,03,979.03
2015,12,10,12,04,978.97
2015,12,10,12,05,978.94
2015,12,10,12,06,978.94
2015,12,10,12,07,978.95
2015,12,10,12,08,979.01
2015,12,10,12,09,978.98
2015,12,10,12,10,979.02
2015,12,10,12,11,979.10
2015,12,10,12,12,979.07
2015,12,10,12,13,979.04
2015,12,10,12,14,979.04
2015,12,10,12,15,979.04
2015,12,10,12,16,979.04
2015,12,10,12,17,979.06
2015,12,10,12,18,979.03
2015,12,10,12,19,979.12
2015,12,10,12,20,979.18
2015,12,10,12,21,979.21
2015,12,10,12,22,979.25
2015,12,10,12,23,979.28
2015,12,10,12,24,979.31
2015,12,10,12,25,979.31
2015,12,10,12,26,979.31
2015,12,10,12,27,979.32
2015,12,10,12,28,979.35
2015,12,10,12,29,979.38
2015,12,10,12,30,979.37
2015,12,10,12,31,979.34
2015,12,10,12,32,979.34
2015,12,10,12,33,979.34
2015,12,10,12,34,979.31
2015,12,10,12,35,979.27
2015,12,10,12,36,979.17
2015,12,10,12,37,979.15
2015,12,10,12,38,979.25
2015,12,10,12,39,979.27
2015,12,10,12,40,979.24
2015,12,10,12,41,979.23
2015,12,10,12,42,979.16
2015,12,10,12,43,979.26
2015,12,10,12,44,979.39
2015,12,10,12,45,979.47
2015,12,10,12,46,979.55
2015,12,10,12,47,979.58
2015,12,10,12,48,979.57
2015,12,10,12,49,979.74
2015,12,10,12,50,979.85
2015,12,10,12,51,979.86
2015,12,10,12,52,979.96
2015,12,10,12,53,980.01
2015,12,10,12,54,979.96
2015,12,10,12,55,979.99
2015,12,10,12,56,979.77
2015,12,10,12,57,979.76
2015,12,10,12,58,979.92
2015,12,10,12,59,979.92
2015,12,10,13,00,979.96
2015,12,10,13,01,980.13
2015,12,10,13,02,980.22
2015,12,10,13,03,980.26
2015,12,10,13,04,980.45
2015,12,10,13,05,980.53
2015,12,10,13,06,980.55
2015,12,10,13,07,980.63
2015,12,10,13,08,980.64
2015,12,10,13,09,980.71
2015,12,10,13,10,980.77
2015,12,10,13,11,980.81
2015,12,10,13,12,980.87
2015,12,10,13,13,980.85
2015,12,10,13,14,980.98
2015,12,10,13,15,981.07
2015,12,10,13,16,981.05
2015,12,10,13,17,981.10
2015,12,10,13,18,981.08
2015,12,10,13,19,981.14
2015,12,10,13,20,981.19
2015,12,10,13,21,981.32
2015,12,10,13,22,981.35
2015,12,10,13,23,981.15
2015,12,10,13,24,981.28
2015,12,10,13,25,981.38
2015,12,10,13,26,981.60
2015,12,10,13,27,981.54
2015,12,10,13,28,981.46
2015,12,10,13,29,981.51
2015,12,10,13,30,981.31
2015,12,10,13,31,981.52
2015,12,10,13,32,981.32
2015,12,10,13,33,981.22
2015,12,10,13,34,981.28
2015,12,10,13,35,981.35
2015,12,10,13,36,981.45
2015,12,10,13,37,981.51
2015,12,10,13,38,981.51
2015,12,10,13,39,981.48
2015,12,10,13,40,981.47
2015,12,10,13,41,981.39
2015,12,10,13,42,981.51
2015,12,10,13,43,981.75
2015,12,10,13,44,981.79
2015,12,10,13,45,981.90
2015,12,10,13,46,981.78
2015,12,10,13,47,981.77
2015,12,10,13,48,981.71
2015,12,10,13,49,981.91
2015,12,10,13,50,981.87
2015,12,10,13,51,981.77
2015,12,10,13,52,981.72
2015,12,10,13,53,981.80
2015,12,10,13,54,981.96
2015,12,10,13,55,982.12
2015,12,10,13,56,982.28
2015,12,10,13,57,982.20
2015,12,10,13,58,982.32
2015,12,10,13,59,982.32
2015,12,10,14,00,982.50
2015,12,10,14,01,982.52
2015,12,10,14,02,982.48
2015,12,10,14,03,982.66
2015,12,10,14,04,982.65
2015,12,10,14,05,982.56
2015,12,10,14,06,982.60
2015,12,10,14,07,982.69
2015,12,10,14,08,982.64
2015,12,10,14,09,982.70
2015,12,10,14,10,982.72
2015,12,10,14,11,982.66
2015,12,10,14,12,982.67
2015,12,10,14,13,982.72
2015,12,10,14,14,982.83
2015,12,10,14,15,982.83
2015,12,10,14,16,982.84
2015,12,10,14,17,982.89
2015,12,10,14,18,982.84
2015,12,10,14,19,982.92
2015,12,10,14,20,982.86
2015,12,10,14,21,982.80
2015,12,10,14,22,982.84
2015,12,10,14,23,982.95
2015,12,10,14,24,983.03
2015,12,10,14,25,982.84
2015,12,10,14,26,982.89
2015,12,10,14,27,983.01
2015,12,10,14,28,983.09
2015,12,10,14,29,983.05
2015,12,10,14,30,983.09
2015,12,10,14,31,983.05
2015,12,10,14,32,983.11
2015,12,10,14,33,983.17
2015,12,10,14,34,983.21
2015,12,10,14,35,983.30
2015,12,10,14,36,983.64
2015,12,10,14,37,983.37
2015,12,10,14,38,983.31
2015,12,10,19,01,990.47
2015,12,10,19,02,990.46
2015,12,10,19,03,990.49
2015,12,10,19,04,990.51
2015,12,10,19,05,990.45
2015,12,10,19,06,990.45
2015,12,10,19,07,990.42
2015,12,10,19,08,990.45
2015,12,10,19,09,990.42
2015,12,10,19,10,990.41
2015,12,10,19,11,990.35
2015,12,10,19,12,990.39
2015,12,10,19,13,990.41
2015,12,10,19,14,990.35
2015,12,10,19,15,990.36
2015,12,10,19,16,990.43
2015,12,10,19,17,990.52
2015,12,10,19,18,990.51
2015,12,10,19,19,990.43
2015,12,10,19,20,990.46
2015,12,10,19,21,990.50
2015,12,10,19,22,990.52
2015,12,10,19,23,990.40
2015,12,10,19,24,990.62
2015,12,10,19,25,990.62
2015,12,10,19,26,990.61
2015,12,10,19,27,990.53
2015,12,10,19,28,990.59
2015,12,10,19,29,990.63
2015,12,10,19,30,990.71
2015,12,10,19,31,990.65
2015,12,10,19,32,990.63
2015,12,10,19,33,990.69
2015,12,10,19,34,990.70
2015,12,10,19,35,990.76
2015,12,10,19,36,990.76
2015,12,10,19,37,990.77
2015,12,10,19,38,990.83
2015,12,10,19,39,990.87
2015,12,10,19,40,990.92
2015,12,10,19,41,990.90
2015,12,10,19,42,990.94
2015,12,10,19,43,990.98
2015,12,10,19,44,990.93
2015,12,10,19,45,990.97
2015,12,10,19,46,991.03
2015,12,10,19,47,991.06
2015,12,10,19,48,991.07
2015,12,10,19,49,991.14
2015,12,10,19,50,991.20
2015,12,10,19,51,991.23
2015,12,10,19,52,991.26
2015,12,10,19,53,991.24
2015,12,10,19,54,991.33
2015,12,10,19,55,991.31
2015,12,10,19,56,991.40
2015,12,10,19,57,991.41
2015,12,10,19,58,991.33
2015,12,10,19,59,991.27
2015,12,10,20,00,991.15
2015,12,10,20,01,991.09
2015,12,10,20,02,991.22
2015,12,10,20,03,991.18
2015,12,10,20,04,991.31
2015,12,10,20,05,991.18
2015,12,10,20,06,991.29
2015,12,10,20,07,991.24
2015,12,10,20,08,991.29
2015,12,10,20,09,991.26
2015,12,10,20,10,991.23
2015,12,10,20,11,991.21
2015,12,10,20,12,991.26
2015,12,10,20,13,991.24
2015,12,10,20,14,991.30
2015,12,10,20,15,991.30
2015,12,10,20,16,991.33
2015,12,10,20,17,991.30
2015,12,10,20,18,991.34
2015,12,10,20,19,991.43
2015,12,10,20,20,991.44
2015,12,10,20,21,991.48
2015,12,10,20,22,991.57
2015,12,10,20,23,991.57
2015,12,10,20,24,991.57
2015,12,10,20,25,991.60
2015,12,10,20,26,991.60
2015,12,10,20,27,991.58
2015,12,10,20,28,991.61
2015,12,10,20,29,991.66
2015,12,10,20,30,991.61
2015,12,10,20,31,991.67
2015,12,10,20,32,991.66
2015,12,10,20,33,991.61
2015,12,10,20,34,991.67
2015,12,10,20,35,991.67
2015,12,10,20,36,991.68
2015,12,10,20,37,991.76
2015,12,10,20,38,991.89
2015,12,10,20,39,991.99
2015,12,10,20,40,992.05
2015,12,10,20,41,992.18
2015,12,10,20,42,992.20
2015,12,10,20,43,992.12
2015,12,10,20,44,992.17
2015,12,10,20,45,992.15
2015,12,10,20,46,992.21
2015,12,10,20,47,992.22
2015,12,10,20,48,992.25
2015,12,10,20,49,992.24
2015,12,10,20,50,992.18
2015,12,10,20,51,992.21
2015,12,10,20,52,992.19
2015,12,10,20,53,992.24
2015,12,10,20,54,992.21
2015,12,10,20,55,992.21
2015,12,10,20,56,992.18
2015,12,10,20,57,992.15
2015,12,10,20,58,992.19
2015,12,10,20,59,992.25
2015,12,10,21,00,992.25